Location: Gönnheim
(49.4488°N, 8.2383°E)
Time: 01:08:41
(UTC+00:00)

Cosmos 1733 - Pass Details

Date: 19 May 2025
Orbit: 376 x 382 km, 82.5° (Epoch: 15 June)

Event Time Altitude Azimuth Distance (km) Brightness Sun altitude
Rises 20:33:07 0° 351° (N) 2,307 7.6 -11.0°
Reaches altitude 10° 20:35:09 10° 352° (N) 1,443 6.4 -11.2°
Maximum altitude 20:38:16 81° 79° (E) 403 2.6 -11.5°
Enters shadow 20:40:28 18° 167° (SSE) 1,050 4.2 -11.7°
